Showing default

HAWK-11C, 62381

Orbit data source: Space-Track

HAWK-11C, 62381 is a payload satellite owned by HawkEye 360 (US) in LEO that was launched on Sat, 21 Dec 2024 UTC via an FALCON 9 launch vehicle from the Air Force Western Test Range (AFWTR). Payloads include a variety of satellites, spacecraft, and rockets equipped with specific instruments for various scientific and technological missions. These include communications satellites like Starlink; space stations such as the ISS; scientific satellites like the Hubble; Earth observation satellites from companies like Planet Labs, Umbra, and HawkEye 360; GPS; miniature CubeSats for education and research; and military/defense satellites.

Loading next visibility...
HAWK-11C details
Identifier
62381, 2024-247E
Orbit
LEO
Last TLE update1 day ago
Origin
Flag of USHawkEye 360 (US)
ManufacturerUTIAS-SFL
MissionOperational Commercial Radar Imaging
Bus & MotorHAWK2G, Unknown motor
Mass31 kg wet, 30 kg dry
Launch date (UTC)
2024-12-21 (2 months ago)
Launch vehicle
FALCON 9
Launch site
Air Force Western Test Range (AFWTR)
Object type
Payload
Rocket body
Debris
Shape & HBRBox + 1 Pan, 1.5 m
Radar Cross Section0.776 m², Medium (>0.1 m² and < 1m²)

Expand to show TLE details & history

TLE from 1 day ago
0 HAWK-11C
1 62381U 24247E   25035.24137186  .00015911  00000-0  74085-3 0  9990
2 62381  44.9975 119.6545 0003466 254.9213 105.1283 15.19802285  6957
Epoch: 2025-02-04T05:47Z
Definitive object data (Epoch: 2025-02-04T05:47:34.528Z)
Latitude-0.00007°
Longitude-101.88892°
Altitude507.059 km
Speed7.612 km/s
True Right ascension07h 58m 37s
True Declination0° 00' 00"
Sunlit
Object was in full shadow at TLE epoch
Visualization TLE readout
Latitude-26.70162°
Longitude-137.54344°
Altitude512.135 km
Speed7.609 km/s
Apparent Right ascension02h 10m 32s
Apparent Declination-56° 18' 33"
Sunlit
Object is in partial shadow
Visualization observer readout
Local Sidereal Time08:53:53
Azimuth223.644° SW
Elevation-37.871°
Doppler factor1
Orbital elements
Apogee altitude510.429 km
Perigee altitude505.655 km
Semi-major axis6,886.179 km
Eccentricity0.0003466
Inclination44.9975°
RAAN119.6545°
Arg. of periapsis254.9213°
True anomaly105.16664°
Mean anomaly105.1283°
Eccentric anomaly105.14747°
Mean motion3.79818 °/min
BSTAR0.00074085
Orbital period94.78 mins
Loading maneuver chart data...
Loading historical data...
Loading historical data...
Loading historical data...
Loading historical data...
Loading historical data...
Loading historical data...
Loading historical data...

HAWK-11C Visibility forecast

Observer location: undefined°, undefined

Span
Click to sort rows by Start time (UTC) header in descending order
Start Az.
Max El. time (UTC)
Max El. Az.
Max El.
End time (UTC)
End Az.
5 mins2025-02-05 08:50:38.553Z224.794° SW2025-02-05 08:52:38.553Z140.985° SSE41.794°2025-02-05 08:55:38.553Z72.415° E
6 mins2025-02-05 10:29:38.553Z284.838° WNW2025-02-05 10:31:38.553Z332.764° NNW34.371°2025-02-05 10:35:38.553Z62.765° ENE
5 mins2025-02-05 12:09:38.553Z308.426° NW2025-02-05 12:11:38.553Z2.5° NNE33.402°2025-02-05 12:14:38.553Z75.074° E
6 mins2025-02-05 13:48:38.553Z290.416° WNW2025-02-05 13:51:38.553Z150.321° SSE43.181°2025-02-05 13:54:38.553Z120.534° SE
|